User: anonymous   Login
Location: Unspecified
(0.0000°N, 0.0000°E)
Time: 00:36:45
(UTC+00:00)
Language:

TATIANA - Orbit

View from above orbital plane
View from above orbital plane
View from above satellite
View from above satellite

Ground track
Ground track

The orbit data is extracted from the following two-line orbital elements,

1 28523U 05002C   20328.51560259 +.00000076 +00000-0 +50742-4 0  9990
2 28523 082.9470 141.8207 0038279 012.2101 347.9980 13.87518885802162
Epoch (UTC): 23 November 2020 12:22:28
Eccentricity: 0.0038279
inclination: 82.9470°
perigee height: 909 km
apogee height: 965 km
right ascension of ascending node: 141.8207°
argument of perigee: 12.2101°
revolutions per day: 13.87518885
mean anomaly at epoch: 347.9980°
orbit number at epoch: 80216

The dashed part of the orbit path shows where the satellite is in the earth's shadow,  

DLR